,,,PA_Meas_PMT16A,,PR_Meas_QMR101_102,,RH_Meas_QMH101,,SR_Meas_QMS101,,TA_Meas_QMH101,,GenWind,,GenWind,
date,time,status,PA,status,PR,status,RH,status,SR,status,TA,status,DirAvg,status,SpdAvg,
2009-09-08, 00:00:04,VALID,1004.78,VALID,0,VALID,94.5752,VALID,0,VALID,24.307,VALID,5,VALID,0,
2009-09-08, 00:01:04,VALID,1004.76,VALID,0,VALID,94.6439,VALID,0,VALID,24.3673,VALID,5,VALID,0,
2009-09-08, 00:02:04,VALID,1004.76,VALID,0,VALID,94.6591,VALID,0,VALID,24.3459,VALID,5,VALID,0,
2009-09-08, 00:03:04,VALID,1004.75,VALID,0,VALID,94.6591,VALID,0,VALID,24.3265,VALID,5,VALID,0,
2009-09-08, 00:04:04,VALID,1004.75,VALID,0,VALID,94.6363,VALID,0,VALID,24.2875,VALID,5,VALID,0,
2009-09-08, 00:05:04,VALID,1004.73,VALID,0,VALID,94.6134,VALID,0,VALID,24.307,VALID,5,VALID,0,
2009-09-08, 00:06:04,VALID,1004.75,VALID,0,VALID,94.6515,VALID,0,VALID,24.3478,VALID,5,VALID,0,
2009-09-08, 00:07:04,VALID,1004.74,VALID,0,VALID,94.6744,VALID,0,VALID,24.3654,VALID,5,VALID,0,
2009-09-08, 00:08:04,VALID,1004.73,VALID,0,VALID,94.6897,VALID,0,VALID,24.3654,VALID,5,VALID,0,
2009-09-08, 00:09:04,VALID,1004.74,VALID,0,VALID,94.6897,VALID,0,VALID,24.3459,VALID,5,VALID,0,
2009-09-08, 00:10:04,VALID,1004.68,VALID,0,VALID,94.7125,VALID,0,VALID,24.3459,VALID,5,VALID,0,
2009-09-08, 00:11:04,VALID,1004.7,VALID,0,VALID,94.7125,VALID,0,VALID,24.3441,VALID,5,VALID,0,
2009-09-08, 00:12:04,VALID,1004.68,VALID,0,VALID,94.7507,VALID,0,VALID,24.3849,VALID,5,VALID,0,
2009-09-08, 00:13:04,VALID,1004.68,VALID,0,VALID,94.7736,VALID,0,VALID,24.4043,VALID,5,VALID,0,
2009-09-08, 00:14:04,VALID,1004.69,VALID,0,VALID,94.7965,VALID,0,VALID,24.4238,VALID,5,VALID,0,
2009-09-08, 00:15:04,VALID,1004.66,VALID,0,VALID,94.7888,VALID,0,VALID,24.3849,VALID,5,VALID,0,
2009-09-08, 00:16:04,VALID,1004.69,VALID,0,VALID,94.7965,VALID,0,VALID,24.4238,VALID,5,VALID,0,
2009-09-08, 00:17:04,VALID,1004.68,VALID,0,VALID,94.8041,VALID,0,VALID,24.4238,VALID,5,VALID,0,
2009-09-08, 00:18:04,VALID,1004.67,VALID,0,VALID,94.7965,VALID,0,VALID,24.3849,VALID,5,VALID,0,
2009-09-08, 00:19:04,VALID,1004.66,VALID,0,VALID,94.827,VALID,0,VALID,24.4043,VALID,5,VALID,0,
2009-09-08, 00:20:04,VALID,1004.64,VALID,0,VALID,94.827,VALID,0,VALID,24.4043,VALID,5,VALID,0,
2009-09-08, 00:21:04,VALID,1004.62,VALID,0,VALID,94.8117,VALID,0,VALID,24.3459,VALID,5,VALID,0,
2009-09-08, 00:22:04,VALID,1004.6,VALID,0,VALID,94.8041,VALID,0,VALID,24.3265,VALID,5,VALID,0,
2009-09-08, 00:23:04,VALID,1004.57,VALID,0,VALID,94.766,VALID,0,VALID,24.3265,VALID,5,VALID,0,
2009-09-08, 00:24:04,VALID,1004.58,VALID,0,VALID,94.766,VALID,0,VALID,24.3459,VALID,5,VALID,0,
2009-09-08, 00:25:04,VALID,1004.54,VALID,0,VALID,94.7507,VALID,0,VALID,24.2857,VALID,5,VALID,0,
2009-09-08, 00:26:04,VALID,1004.52,VALID,0,VALID,94.7431,VALID,0,VALID,24.307,VALID,5,VALID,0,
2009-09-08, 00:27:04,VALID,1004.5,VALID,0,VALID,94.7431,VALID,0,VALID,24.2857,VALID,5,VALID,0,
2009-09-08, 00:28:04,VALID,1004.5,VALID,0,VALID,94.7583,VALID,0,VALID,24.2857,VALID,5,VALID,0,
2009-09-08, 00:29:04,VALID,1004.46,VALID,0,VALID,94.7583,VALID,0,VALID,24.307,VALID,5,VALID,0,
2009-09-08, 00:30:04,VALID,1004.41,VALID,0,VALID,94.7736,VALID,0,VALID,24.3052,VALID,5,VALID,0,
2009-09-08, 00:31:04,VALID,1004.4,VALID,0,VALID,94.766,VALID,0,VALID,24.2875,VALID,5,VALID,0,
2009-09-08, 00:32:04,VALID,1004.37,VALID,0,VALID,94.7583,VALID,0,VALID,24.2662,VALID,5,VALID,0,
2009-09-08, 00:33:04,VALID,1004.34,VALID,0,VALID,94.7583,VALID,0,VALID,24.2486,VALID,5,VALID,0,
2009-09-08, 00:34:04,VALID,1004.33,VALID,0,VALID,94.7431,VALID,0,VALID,24.2486,VALID,5,VALID,0,
2009-09-08, 00:35:04,VALID,1004.34,VALID,0,VALID,94.7583,VALID,0,VALID,24.2273,VALID,5,VALID,0,
2009-09-08, 00:36:04,VALID,1004.32,VALID,0,VALID,94.7888,VALID,0,VALID,24.2681,VALID,5,VALID,0,
2009-09-08, 00:37:04,VALID,1004.34,VALID,0,VALID,94.7965,VALID,0,VALID,24.2857,VALID,5,VALID,0,
2009-09-08, 00:38:04,VALID,1004.29,VALID,0,VALID,94.8346,VALID,0,VALID,24.3654,VALID,5,VALID,0,
2009-09-08, 00:39:04,VALID,1004.28,VALID,0,VALID,94.9033,VALID,0,VALID,24.3849,VALID,5,VALID,0,
2009-09-08, 00:40:04,VALID,1004.3,VALID,0,VALID,94.9262,VALID,0,VALID,24.422,VALID,5,VALID,0,
2009-09-08, 00:41:04,VALID,1004.27,VALID,0,VALID,94.9643,VALID,0,VALID,24.4822,VALID,5,VALID,0,
2009-09-08, 00:42:04,VALID,1004.28,VALID,0,VALID,94.9643,VALID,0,VALID,24.4609,VALID,5,VALID,0,
2009-09-08, 00:43:04,VALID,1004.26,VALID,0,VALID,94.9643,VALID,0,VALID,24.4628,VALID,5,VALID,0,
2009-09-08, 00:44:04,VALID,1004.23,VALID,0,VALID,95.0253,VALID,0,VALID,24.5582,VALID,5,VALID,0,
2009-09-08, 00:45:04,VALID,1004.23,VALID,0,VALID,95.0711,VALID,0,VALID,24.599,VALID,5,VALID,0,
2009-09-08, 00:46:04,VALID,1004.23,VALID,0,VALID,95.0558,VALID,0,VALID,24.5796,VALID,5,VALID,0,
2009-09-08, 00:47:04,VALID,1004.22,VALID,0,VALID,95.0711,VALID,0,VALID,24.5796,VALID,5,VALID,0,
2009-09-08, 00:48:04,VALID,1004.21,VALID,0,VALID,95.0635,VALID,0,VALID,24.6009,VALID,5,VALID,0,
2009-09-08, 00:49:04,VALID,1004.17,VALID,0,VALID,95.0711,VALID,0,VALID,24.5796,VALID,5,VALID,0,
2009-09-08, 00:50:04,VALID,1004.16,VALID,0,VALID,95.0635,VALID,0,VALID,24.5582,VALID,5,VALID,0,
2009-09-08, 00:51:04,VALID,1004.15,VALID,0,VALID,95.0787,VALID,0,VALID,24.599,VALID,5,VALID,0,
2009-09-08, 00:52:04,VALID,1004.13,VALID,0,VALID,95.0864,VALID,0,VALID,24.5796,VALID,5,VALID,0,
2009-09-08, 00:53:04,VALID,1004.11,VALID,0,VALID,95.0711,VALID,0,VALID,24.5582,VALID,5,VALID,0,
2009-09-08, 00:54:04,VALID,1004.11,VALID,0,VALID,95.0711,VALID,0,VALID,24.5796,VALID,5,VALID,0,
2009-09-08, 00:55:04,VALID,1004.09,VALID,0,VALID,95.0787,VALID,0,VALID,24.5796,VALID,5,VALID,0,
2009-09-08, 00:56:04,VALID,1004.09,VALID,0,VALID,95.0787,VALID,0,VALID,24.599,VALID,5,VALID,0,
2009-09-08, 00:57:04,VALID,1004.07,VALID,0,VALID,95.0864,VALID,0,VALID,24.5972,VALID,5,VALID,0,
2009-09-08, 00:58:04,VALID,1004.03,VALID,0,VALID,95.1016,VALID,0,VALID,24.6361,VALID,5,VALID,0,
2009-09-08, 00:59:04,VALID,1004.04,VALID,0,VALID,95.1398,VALID,0,VALID,24.6964,VALID,5,VALID,0,
2009-09-08, 01:00:04,VALID,1004.02,VALID,0,VALID,95.1627,VALID,0,VALID,24.6769,VALID,5,VALID,0,
2009-09-08, 01:01:04,VALID,1004.01,VALID,0,VALID,95.1245,VALID,0,VALID,24.6574,VALID,5,VALID,0,
2009-09-08, 01:02:04,VALID,1004,VALID,0,VALID,95.1474,VALID,0,VALID,24.6574,VALID,5,VALID,0,
2009-09-08, 01:03:04,VALID,1004,VALID,0,VALID,95.1321,VALID,0,VALID,24.6574,VALID,5,VALID,0,
2009-09-08, 01:04:04,VALID,1004,VALID,0,VALID,95.1245,VALID,0,VALID,24.6574,VALID,5,VALID,0,
2009-09-08, 01:05:04,VALID,1003.96,VALID,0,VALID,95.1321,VALID,0,VALID,24.638,VALID,5,VALID,0,
2009-09-08, 01:06:04,VALID,1003.95,VALID,0,VALID,95.1474,VALID,0,VALID,24.638,VALID,5,VALID,0,
2009-09-08, 01:07:04,VALID,1003.91,VALID,0,VALID,95.1321,VALID,0,VALID,24.638,VALID,5,VALID,0,
2009-09-08, 01:08:04,VALID,1003.91,VALID,0,VALID,95.1398,VALID,0,VALID,24.6185,VALID,5,VALID,0,
2009-09-08, 01:09:04,VALID,1003.87,VALID,0,VALID,95.1245,VALID,0,VALID,24.599,VALID,5,VALID,0,
2009-09-08, 01:10:04,VALID,1003.86,VALID,0,VALID,95.1093,VALID,0,VALID,24.599,VALID,5,VALID,0,
2009-09-08, 01:11:04,VALID,1003.85,VALID,0,VALID,95.1169,VALID,0,VALID,24.6185,VALID,5,VALID,0,
2009-09-08, 01:12:04,VALID,1003.82,VALID,0,VALID,95.1398,VALID,0,VALID,24.6166,VALID,5,VALID,0,
2009-09-08, 01:13:04,VALID,1003.8,VALID,0,VALID,95.155,VALID,0,VALID,24.638,VALID,5,VALID,0,
2009-09-08, 01:14:04,VALID,1003.78,VALID,0,VALID,95.1398,VALID,0,VALID,24.638,VALID,5,VALID,0,
2009-09-08, 01:15:04,VALID,1003.74,VALID,0,VALID,95.1474,VALID,0,VALID,24.6574,VALID,5,VALID,0,
2009-09-08, 01:16:04,VALID,1003.74,VALID,0,VALID,95.155,VALID,0,VALID,24.6574,VALID,5,VALID,0,
2009-09-08, 01:17:04,VALID,1003.74,VALID,0,VALID,95.155,VALID,0,VALID,24.638,VALID,5,VALID,0,
2009-09-08, 01:18:04,VALID,1003.72,VALID,0,VALID,95.155,VALID,0,VALID,24.6166,VALID,5,VALID,0,
2009-09-08, 01:19:04,VALID,1003.7,VALID,0,VALID,95.155,VALID,0,VALID,24.638,VALID,5,VALID,0,
2009-09-08, 01:20:04,VALID,1003.67,VALID,0,VALID,95.1398,VALID,0,VALID,24.638,VALID,5,VALID,0,
2009-09-08, 01:21:04,VALID,1003.67,VALID,0,VALID,95.1398,VALID,0,VALID,24.6185,VALID,5,VALID,0,
2009-09-08, 01:22:04,VALID,1003.67,VALID,0,VALID,95.1474,VALID,0,VALID,24.638,VALID,5,VALID,0,
2009-09-08, 01:23:04,VALID,1003.7,VALID,0,VALID,95.155,VALID,0,VALID,24.638,VALID,5,VALID,0,
2009-09-08, 01:24:04,VALID,1003.68,VALID,0,VALID,95.1398,VALID,0,VALID,24.638,VALID,5,VALID,0,
2009-09-08, 01:25:04,VALID,1003.68,VALID,0,VALID,95.1474,VALID,0,VALID,24.6361,VALID,5,VALID,0,
2009-09-08, 01:26:04,VALID,1003.71,VALID,0,VALID,95.1474,VALID,0,VALID,24.6593,VALID,5,VALID,0,
2009-09-08, 01:27:04,VALID,1003.68,VALID,0,VALID,95.1474,VALID,0,VALID,24.638,VALID,5,VALID,0,
2009-09-08, 01:28:04,VALID,1003.68,VALID,0,VALID,95.1627,VALID,0,VALID,24.6361,VALID,5,VALID,0,
2009-09-08, 01:29:04,VALID,1003.69,VALID,0,VALID,95.1474,VALID,0.100563,VALID,24.6556,VALID,5,VALID,0,
2009-09-08, 01:30:04,VALID,1003.67,VALID,0,VALID,95.155,VALID,0,VALID,24.6945,VALID,5,VALID,0,
2009-09-08, 01:31:04,VALID,1003.68,VALID,0,VALID,95.155,VALID,0.100563,VALID,24.675,VALID,5,VALID,0,
2009-09-08, 01:32:04,VALID,1003.65,VALID,0,VALID,95.1398,VALID,0,VALID,24.675,VALID,5,VALID,0,
2009-09-08, 01:33:04,VALID,1003.64,VALID,0,VALID,95.1398,VALID,0,VALID,24.675,VALID,5,VALID,0,
2009-09-08, 01:34:04,VALID,1003.64,VALID,0,VALID,95.1627,VALID,0,VALID,24.675,VALID,5,VALID,0,
2009-09-08, 01:35:04,VALID,1003.63,VALID,0,VALID,95.1779,VALID,0,VALID,24.6964,VALID,5,VALID,0,
2009-09-08, 01:36:04,VALID,1003.63,VALID,0,VALID,95.1779,VALID,0.100563,VALID,24.6342,VALID,5,VALID,0,
2009-09-08, 01:37:04,VALID,1003.64,VALID,0,VALID,95.1627,VALID,0.100563,VALID,24.6361,VALID,5,VALID,0,
2009-09-08, 01:38:04,VALID,1003.61,VALID,0,VALID,95.155,VALID,0,VALID,24.6166,VALID,5,VALID,0,
2009-09-08, 01:39:04,VALID,1003.64,VALID,0,VALID,95.1474,VALID,0,VALID,24.6166,VALID,5,VALID,0,
2009-09-08, 01:40:04,VALID,1003.63,VALID,0,VALID,95.1321,VALID,0,VALID,24.6166,VALID,5,VALID,0,
2009-09-08, 01:41:04,VALID,1003.62,VALID,0,VALID,95.1474,VALID,0,VALID,24.6166,VALID,5,VALID,0,
2009-09-08, 01:42:04,VALID,1003.62,VALID,0,VALID,95.1398,VALID,0.100563,VALID,24.6166,VALID,5,VALID,0,
2009-09-08, 01:43:04,VALID,1003.63,VALID,0,VALID,95.155,VALID,0,VALID,24.6361,VALID,5,VALID,0,
2009-09-08, 01:44:04,VALID,1003.6,VALID,0,VALID,95.1703,VALID,0.100563,VALID,24.6361,VALID,5,VALID,0,
2009-09-08, 01:45:04,VALID,1003.59,VALID,0,VALID,95.1703,VALID,0,VALID,24.6166,VALID,5,VALID,0,
2009-09-08, 01:46:04,VALID,1003.63,VALID,0,VALID,95.155,VALID,0.100563,VALID,24.6537,VALID,5,VALID,0,
2009-09-08, 01:47:04,VALID,1003.61,VALID,0,VALID,95.1703,VALID,0.100563,VALID,24.675,VALID,5,VALID,0,
2009-09-08, 01:48:04,VALID,1003.61,VALID,0,VALID,95.1703,VALID,0,VALID,24.675,VALID,5,VALID,0,
2009-09-08, 01:49:04,VALID,1003.63,VALID,0,VALID,95.2008,VALID,0,VALID,24.6945,VALID,5,VALID,0,
2009-09-08, 01:50:04,VALID,1003.59,VALID,0,VALID,95.1855,VALID,0,VALID,24.714,VALID,5,VALID,0,
2009-09-08, 01:51:04,VALID,1003.58,VALID,0,VALID,95.1855,VALID,0,VALID,24.714,VALID,5,VALID,0,
2009-09-08, 01:52:04,VALID,1003.61,VALID,0,VALID,95.2084,VALID,0.100563,VALID,24.7353,VALID,5,VALID,0,
2009-09-08, 01:53:04,VALID,1003.62,VALID,0,VALID,95.2084,VALID,0,VALID,24.714,VALID,5,VALID,0,
2009-09-08, 01:54:04,VALID,1003.61,VALID,0,VALID,95.2008,VALID,0,VALID,24.7529,VALID,5,VALID,0,
2009-09-08, 01:55:04,VALID,1003.63,VALID,0,VALID,95.2313,VALID,0.100563,VALID,24.7529,VALID,5,VALID,0,
2009-09-08, 01:56:04,VALID,1003.55,VALID,0,VALID,95.2313,VALID,0,VALID,24.7335,VALID,5,VALID,0,
2009-09-08, 01:57:04,VALID,1003.62,VALID,0,VALID,95.2161,VALID,0,VALID,24.7335,VALID,5,VALID,0,
2009-09-08, 01:58:04,VALID,1003.58,VALID,0,VALID,95.2237,VALID,0.100563,VALID,24.6945,VALID,5,VALID,0,
2009-09-08, 01:59:04,VALID,1003.58,VALID,0,VALID,95.2237,VALID,0,VALID,24.714,VALID,5,VALID,0,
2009-09-08, 02:00:04,VALID,1003.57,VALID,0,VALID,95.2008,VALID,0,VALID,24.6945,VALID,5,VALID,0,
2009-09-08, 02:01:04,VALID,1003.57,VALID,0,VALID,95.2161,VALID,0,VALID,24.714,VALID,5,VALID,0,
2009-09-08, 02:02:04,VALID,1003.6,VALID,0,VALID,95.2161,VALID,0,VALID,24.7529,VALID,5,VALID,0,
2009-09-08, 02:03:04,VALID,1003.61,VALID,0,VALID,95.2313,VALID,0,VALID,24.7529,VALID,5,VALID,0,
2009-09-08, 02:04:04,VALID,1003.62,VALID,0,VALID,95.2237,VALID,0,VALID,24.7724,VALID,5,VALID,0,
2009-09-08, 02:05:04,VALID,1003.61,VALID,0,VALID,95.2389,VALID,0,VALID,24.7335,VALID,5,VALID,0,
2009-09-08, 02:06:04,VALID,1003.6,VALID,0,VALID,95.2466,VALID,0,VALID,24.675,VALID,5,VALID,0,
2009-09-08, 02:07:04,VALID,1003.58,VALID,0,VALID,95.2008,VALID,0,VALID,24.6556,VALID,5,VALID,0,
2009-09-08, 02:08:04,VALID,1003.58,VALID,0,VALID,95.2161,VALID,0.100563,VALID,24.6556,VALID,5,VALID,0,
2009-09-08, 02:09:04,VALID,1003.6,VALID,0,VALID,95.1932,VALID,0,VALID,24.6769,VALID,5,VALID,0,
2009-09-08, 02:10:04,VALID,1003.6,VALID,0,VALID,95.2389,VALID,0,VALID,24.6556,VALID,5,VALID,0,
2009-09-08, 02:11:04,VALID,1003.61,VALID,0,VALID,95.2161,VALID,0,VALID,24.6556,VALID,5,VALID,0,
2009-09-08, 02:12:04,VALID,1003.6,VALID,0,VALID,95.2008,VALID,0,VALID,24.675,VALID,5,VALID,0,
2009-09-08, 02:13:04,VALID,1003.6,VALID,0,VALID,95.2161,VALID,0,VALID,24.6574,VALID,5,VALID,0,
2009-09-08, 02:14:04,VALID,1003.62,VALID,0,VALID,95.2008,VALID,0,VALID,24.6574,VALID,5,VALID,0,
2009-09-08, 02:15:04,VALID,1003.61,VALID,0,VALID,95.2161,VALID,0,VALID,24.6361,VALID,5,VALID,0,
2009-09-08, 02:16:04,VALID,1003.62,VALID,0,VALID,95.2161,VALID,0,VALID,24.6574,VALID,5,VALID,0,
2009-09-08, 02:17:04,VALID,1003.61,VALID,0,VALID,95.2161,VALID,0,VALID,24.6556,VALID,5,VALID,0,
2009-09-08, 02:18:04,VALID,1003.61,VALID,0,VALID,95.2237,VALID,0,VALID,24.6769,VALID,5,VALID,0,
2009-09-08, 02:19:04,VALID,1003.59,VALID,0,VALID,95.2389,VALID,0,VALID,24.638,VALID,5,VALID,0,
2009-09-08, 02:20:04,VALID,1003.58,VALID,0,VALID,95.2161,VALID,0,VALID,24.638,VALID,5,VALID,0,
2009-09-08, 02:21:04,VALID,1003.57,VALID,0,VALID,95.2313,VALID,0,VALID,24.638,VALID,5,VALID,0,
2009-09-08, 02:22:04,VALID,1003.59,VALID,0,VALID,95.2542,VALID,0,VALID,24.6574,VALID,5,VALID,0,
2009-09-08, 02:23:04,VALID,1003.59,VALID,0,VALID,95.2389,VALID,0,VALID,24.6593,VALID,5,VALID,0,
2009-09-08, 02:24:04,VALID,1003.6,VALID,0,VALID,95.2313,VALID,0,VALID,24.6185,VALID,5,VALID,0,
2009-09-08, 02:25:04,VALID,1003.58,VALID,0,VALID,95.2389,VALID,0,VALID,24.5601,VALID,5,VALID,0,
2009-09-08, 02:26:04,VALID,1003.58,VALID,0,VALID,95.2313,VALID,0,VALID,24.5406,VALID,5,VALID,0,
2009-09-08, 02:27:04,VALID,1003.58,VALID,0,VALID,95.2313,VALID,0,VALID,24.5017,VALID,5,VALID,0,
2009-09-08, 02:28:04,VALID,1003.58,VALID,0,VALID,95.2313,VALID,0,VALID,24.4998,VALID,5,VALID,0,
2009-09-08, 02:29:04,VALID,1003.59,VALID,0,VALID,95.2161,VALID,0,VALID,24.4785,VALID,5,VALID,0,
2009-09-08, 02:30:04,VALID,1003.59,VALID,0,VALID,95.2008,VALID,0,VALID,24.4998,VALID,5,VALID,0,
2009-09-08, 02:31:04,VALID,1003.58,VALID,0,VALID,95.2161,VALID,0.100563,VALID,24.4804,VALID,5,VALID,0,
2009-09-08, 02:32:04,VALID,1003.6,VALID,0,VALID,95.2161,VALID,0.100563,VALID,24.4804,VALID,5,VALID,0,
2009-09-08, 02:33:04,VALID,1003.6,VALID,0,VALID,95.2237,VALID,0,VALID,24.4804,VALID,5,VALID,0,
2009-09-08, 02:34:04,VALID,1003.64,VALID,0,VALID,95.2237,VALID,0,VALID,24.4609,VALID,5,VALID,0,
2009-09-08, 02:35:04,VALID,1003.63,VALID,0,VALID,95.2084,VALID,0,VALID,24.4609,VALID,5,VALID,0,
2009-09-08, 02:36:04,VALID,1003.64,VALID,0,VALID,95.2237,VALID,0.100563,VALID,24.4609,VALID,5,VALID,0,
2009-09-08, 02:37:04,VALID,1003.63,VALID,0,VALID,95.2313,VALID,0.100563,VALID,24.4414,VALID,5,VALID,0,
2009-09-08, 02:38:04,VALID,1003.66,VALID,0,VALID,95.2466,VALID,0.100563,VALID,24.4396,VALID,5,VALID,0,
2009-09-08, 02:39:04,VALID,1003.63,VALID,0,VALID,95.2466,VALID,0,VALID,24.4609,VALID,5,VALID,0,
2009-09-08, 02:40:04,VALID,1003.65,VALID,0,VALID,95.2618,VALID,0.100563,VALID,24.4804,VALID,5,VALID,0,
2009-09-08, 02:41:04,VALID,1003.64,VALID,0,VALID,95.2618,VALID,0,VALID,24.5193,VALID,5,VALID,0,
2009-09-08, 02:42:04,VALID,1003.62,VALID,0,VALID,95.2771,VALID,0,VALID,24.5193,VALID,5,VALID,0,
2009-09-08, 02:43:04,VALID,1003.63,VALID,0,VALID,95.2771,VALID,0,VALID,24.5017,VALID,5,VALID,0,
2009-09-08, 02:44:04,VALID,1003.63,VALID,0,VALID,95.2923,VALID,0,VALID,24.5035,VALID,5,VALID,0,
2009-09-08, 02:45:04,VALID,1003.61,VALID,0,VALID,95.3076,VALID,0,VALID,24.4238,VALID,5,VALID,0,
2009-09-08, 02:46:04,VALID,1003.63,VALID,0,VALID,95.2695,VALID,0,VALID,24.4043,VALID,5,VALID,0,
2009-09-08, 02:47:04,VALID,1003.63,VALID,0,VALID,95.2847,VALID,0,VALID,24.4043,VALID,5,VALID,0,
2009-09-08, 02:48:04,VALID,1003.66,VALID,0,VALID,95.2923,VALID,0,VALID,24.3654,VALID,5,VALID,0,
2009-09-08, 02:49:04,VALID,1003.64,VALID,0,VALID,95.3076,VALID,0,VALID,24.3849,VALID,5,VALID,0,
2009-09-08, 02:50:04,VALID,1003.63,VALID,0,VALID,95.2771,VALID,0,VALID,24.3636,VALID,5,VALID,0,
2009-09-08, 02:51:04,VALID,1003.62,VALID,0,VALID,95.2618,VALID,0,VALID,24.3673,VALID,5,VALID,0,
2009-09-08, 02:52:04,VALID,1003.62,VALID,0,VALID,95.2695,VALID,0,VALID,24.307,VALID,5,VALID,0,
2009-09-08, 02:53:04,VALID,1003.62,VALID,0,VALID,95.2847,VALID,0,VALID,24.2875,VALID,5,VALID,0,
2009-09-08, 02:54:04,VALID,1003.61,VALID,0,VALID,95.2923,VALID,0,VALID,24.3283,VALID,5,VALID,0,
2009-09-08, 02:55:04,VALID,1003.6,VALID,0,VALID,95.2771,VALID,0,VALID,24.3459,VALID,5,VALID,0,
2009-09-08, 02:56:04,VALID,1003.61,VALID,0,VALID,95.2923,VALID,0,VALID,24.3654,VALID,5,VALID,0,
2009-09-08, 02:57:04,VALID,1003.65,VALID,0,VALID,95.3,VALID,0,VALID,24.3654,VALID,5,VALID,0,
2009-09-08, 02:58:04,VALID,1003.66,VALID,0,VALID,95.3076,VALID,0,VALID,24.3867,VALID,5,VALID,0,
2009-09-08, 02:59:04,VALID,1003.68,VALID,0,VALID,95.3152,VALID,0,VALID,24.3849,VALID,5,VALID,0,
2009-09-08, 03:00:04,VALID,1003.69,VALID,0,VALID,95.3152,VALID,0,VALID,24.3654,VALID,5,VALID,0,
2009-09-08, 03:01:04,VALID,1003.67,VALID,0,VALID,95.3229,VALID,0,VALID,24.3654,VALID,5,VALID,0,
2009-09-08, 03:02:04,VALID,1003.68,VALID,0,VALID,95.3229,VALID,0,VALID,24.3849,VALID,5,VALID,0,
2009-09-08, 03:03:04,VALID,1003.68,VALID,0,VALID,95.3534,VALID,0,VALID,24.4257,VALID,5,VALID,0,
2009-09-08, 03:04:04,VALID,1003.69,VALID,0,VALID,95.3534,VALID,0,VALID,24.4043,VALID,5,VALID,0,
2009-09-08, 03:05:04,VALID,1003.7,VALID,0,VALID,95.3457,VALID,0,VALID,24.383,VALID,5,VALID,0,
2009-09-08, 03:06:04,VALID,1003.69,VALID,0,VALID,95.361,VALID,0,VALID,24.3849,VALID,5,VALID,0,
2009-09-08, 03:07:04,VALID,1003.71,VALID,0,VALID,95.361,VALID,0,VALID,24.4043,VALID,5,VALID,0,
2009-09-08, 03:08:04,VALID,1003.71,VALID,0,VALID,95.3839,VALID,0,VALID,24.3654,VALID,5,VALID,0,
2009-09-08, 03:09:04,VALID,1003.76,VALID,0,VALID,95.361,VALID,0,VALID,24.3654,VALID,5,VALID,0,
2009-09-08, 03:10:04,VALID,1003.72,VALID,0,VALID,95.361,VALID,0,VALID,24.3265,VALID,5,VALID,0,
2009-09-08, 03:11:04,VALID,1003.73,VALID,0,VALID,95.3534,VALID,0,VALID,24.307,VALID,5,VALID,0,
2009-09-08, 03:12:04,VALID,1003.75,VALID,0,VALID,95.3686,VALID,0,VALID,24.307,VALID,5,VALID,0,
2009-09-08, 03:13:04,VALID,1003.77,VALID,0,VALID,95.3534,VALID,0,VALID,24.2681,VALID,5,VALID,0,
2009-09-08, 03:14:04,VALID,1003.79,VALID,0,VALID,95.3381,VALID,0,VALID,24.2468,VALID,5,VALID,0,
2009-09-08, 03:15:04,VALID,1003.8,VALID,0,VALID,95.3839,VALID,0,VALID,24.2681,VALID,5,VALID,0,
2009-09-08, 03:16:04,VALID,1003.83,VALID,0,VALID,95.3686,VALID,0,VALID,24.2875,VALID,5,VALID,0,
2009-09-08, 03:17:04,VALID,1003.85,VALID,0,VALID,95.3686,VALID,0,VALID,24.2875,VALID,5,VALID,0,
2009-09-08, 03:18:04,VALID,1003.82,VALID,0,VALID,95.361,VALID,0,VALID,24.2894,VALID,5,VALID,0,
2009-09-08, 03:19:04,VALID,1003.84,VALID,0,VALID,95.3686,VALID,0,VALID,24.2681,VALID,5,VALID,0,
2009-09-08, 03:20:04,VALID,1003.86,VALID,0,VALID,95.3915,VALID,0,VALID,24.2875,VALID,5,VALID,0,
2009-09-08, 03:21:04,VALID,1003.87,VALID,0,VALID,95.3915,VALID,0,VALID,24.307,VALID,5,VALID,0,
2009-09-08, 03:22:04,VALID,1003.91,VALID,0,VALID,95.3915,VALID,0,VALID,24.3283,VALID,5,VALID,0,
2009-09-08, 03:23:04,VALID,1003.9,VALID,0,VALID,95.3915,VALID,0,VALID,24.307,VALID,5,VALID,0,
2009-09-08, 03:24:04,VALID,1003.91,VALID,0,VALID,95.3991,VALID,0,VALID,24.307,VALID,5,VALID,0,
2009-09-08, 03:25:04,VALID,1003.92,VALID,0,VALID,95.4068,VALID,0,VALID,24.307,VALID,5,VALID,0,
2009-09-08, 03:26:04,VALID,1003.93,VALID,0,VALID,95.4068,VALID,0,VALID,24.307,VALID,5,VALID,0,
2009-09-08, 03:27:04,VALID,1003.98,VALID,0,VALID,95.3991,VALID,0,VALID,24.3283,VALID,5,VALID,0,
2009-09-08, 03:28:04,VALID,1003.96,VALID,0,VALID,95.4068,VALID,0,VALID,24.3283,VALID,5,VALID,0,
2009-09-08, 03:29:04,VALID,1003.94,VALID,0,VALID,95.4144,VALID,0,VALID,24.3265,VALID,5,VALID,0,
2009-09-08, 03:30:04,VALID,1003.97,VALID,0,VALID,95.422,VALID,0,VALID,24.3441,VALID,5,VALID,0,
2009-09-08, 03:31:04,VALID,1003.99,VALID,0,VALID,95.4144,VALID,0,VALID,24.3867,VALID,5,VALID,0,
2009-09-08, 03:32:04,VALID,1003.97,VALID,0,VALID,95.422,VALID,0,VALID,24.3441,VALID,5,VALID,0,
2009-09-08, 03:33:04,VALID,1004,VALID,0,VALID,95.422,VALID,0,VALID,24.3654,VALID,5,VALID,0,
2009-09-08, 03:34:04,VALID,1004,VALID,0,VALID,95.4297,VALID,0,VALID,24.3441,VALID,5,VALID,0,
2009-09-08, 03:35:04,VALID,1004.01,VALID,0,VALID,95.4297,VALID,0,VALID,24.3265,VALID,2,VALID,0,
2009-09-08, 03:36:04,VALID,1004,VALID,0,VALID,95.422,VALID,0,VALID,24.3459,VALID,1,VALID,0,
2009-09-08, 03:37:04,VALID,1003.99,VALID,0,VALID,95.422,VALID,0,VALID,24.3265,VALID,1,VALID,0,
2009-09-08, 03:38:04,VALID,1003.99,VALID,0,VALID,95.4144,VALID,0,VALID,24.3265,VALID,360,VALID,0,
2009-09-08, 03:39:04,VALID,1003.97,VALID,0,VALID,95.4373,VALID,0,VALID,24.3246,VALID,357,VALID,0,
2009-09-08, 03:40:04,VALID,1003.98,VALID,0,VALID,95.422,VALID,0,VALID,24.3654,VALID,356,VALID,0,
2009-09-08, 03:41:04,VALID,1003.95,VALID,0,VALID,95.4297,VALID,0,VALID,24.3654,VALID,356,VALID,0,
2009-09-08, 03:42:04,VALID,1003.97,VALID,0,VALID,95.4449,VALID,0,VALID,24.4238,VALID,351,VALID,0.0152344,
2009-09-08, 03:43:04,VALID,1003.95,VALID,0,VALID,95.4373,VALID,0,VALID,24.4628,VALID,358,VALID,0.633203,
2009-09-08, 03:44:04,VALID,1003.97,VALID,0,VALID,95.422,VALID,0,VALID,24.4609,VALID,352,VALID,0.679297,
2009-09-08, 03:45:04,VALID,1003.95,VALID,0,VALID,95.4449,VALID,0,VALID,24.5017,VALID,352,VALID,0.484766,
2009-09-08, 03:46:04,VALID,1003.97,VALID,0,VALID,95.4526,VALID,0,VALID,24.5406,VALID,352,VALID,0.398047,
2009-09-08, 03:47:04,VALID,1003.99,VALID,0,VALID,95.4526,VALID,0,VALID,24.5796,VALID,352,VALID,0.533984,
2009-09-08, 03:48:04,VALID,1004,VALID,0,VALID,95.4526,VALID,0,VALID,24.6185,VALID,358,VALID,0.646484,
2009-09-08, 03:49:04,VALID,1004.01,VALID,0,VALID,95.4602,VALID,0,VALID,24.6593,VALID,3,VALID,0.589844,
2009-09-08, 03:50:04,VALID,1003.97,VALID,0,VALID,95.4526,VALID,0,VALID,24.6769,VALID,2,VALID,0.762109,
2009-09-08, 03:51:04,VALID,1003.99,VALID,0,VALID,95.4602,VALID,0,VALID,24.6574,VALID,351,VALID,0.707812,
2009-09-08, 03:52:04,VALID,1003.99,VALID,0,VALID,95.4602,VALID,0,VALID,24.638,VALID,349,VALID,0.516016,
2009-09-08, 03:53:04,VALID,1003.97,VALID,0,VALID,95.4602,VALID,0,VALID,24.6185,VALID,349,VALID,0.587891,
2009-09-08, 03:54:04,VALID,1004.03,VALID,0,VALID,95.4449,VALID,0,VALID,24.5777,VALID,349,VALID,0.503906,
2009-09-08, 03:55:04,VALID,1004.03,VALID,0,VALID,95.4526,VALID,0,VALID,24.5601,VALID,349,VALID,0.484766,
2009-09-08, 03:56:04,VALID,1004.03,VALID,0,VALID,95.4144,VALID,0,VALID,24.5406,VALID,349,VALID,0.470703,
2009-09-08, 03:57:04,VALID,1004.07,VALID,0,VALID,95.4144,VALID,0,VALID,24.5406,VALID,349,VALID,0.471094,
2009-09-08, 03:58:04,VALID,1004.09,VALID,0,VALID,95.3991,VALID,0,VALID,24.5193,VALID,349,VALID,0.384375,
2009-09-08, 03:59:04,VALID,1004.1,VALID,0,VALID,95.4144,VALID,0,VALID,24.4998,VALID,349,VALID,0.400391,
2009-09-08, 04:00:04,VALID,1004.11,VALID,0,VALID,95.3991,VALID,0,VALID,24.4804,VALID,349,VALID,0.541406,
2009-09-08, 04:01:04,VALID,1004.11,VALID,0,VALID,95.3915,VALID,0.100563,VALID,24.4414,VALID,349,VALID,0.435937,
2009-09-08, 04:02:04,VALID,1004.1,VALID,0,VALID,95.3763,VALID,0,VALID,24.4414,VALID,349,VALID,0.462891,